Location: Neuvy-Saint-S�pulchre
(46.5950°N, 1.8122°E)
Time: 00:55:53
(UTC+02:00)

ISS - Visible Passes

Search period start: 24 April 2019 00:00
Search period end: 04 May 2019 00:00
Orbit: 408 x 410 km, 51.6° (Epoch: 24 April)

Date Brightness Start Highest point End Pass type
(mag) Time Alt. Az. Time Alt. Az. Time Alt. Az.
30 Apr -1.3 05:19:50 10° SSE 05:21:38 14° SE 05:23:27 10° E visible
01 May -3.2 06:03:42 10° SW 06:06:55 49° SSE 06:10:08 10° ENE visible
02 May -2.5 05:14:19 18° SSW 05:16:07 30° SE 05:19:04 10° E visible
03 May -1.8 04:25:19 18° SE 04:25:23 18° SE 04:27:44 10° E visible
03 May -3.8 05:58:18 10° WSW 06:01:36 82° NNW 06:04:56 10° ENE visible
